Regional Weather Roundup
Issued by NWS

Home | Current Version | Previous Version | Text Only | Print | Product List | Glossary Off
Versions: 1 2 3 4 5 6 7 8 9 10 11 12 13 14 15 16 17 18 19 20 21 22 23 24 25 26 27 28 29 30 31 32 33 34 35 36 37 38 39 40 41 42 43 44 45 46 47 48 49 50

000
ASUS43 KTOP 220259
RWRKS

WEATHER ROUNDUP FOR KANSAS
NATIONAL WEATHER SERVICE GOODLAND KS
1000 PM CDT THU SEP 21 2017

NOTE:  "FAIR" INDICATES FEW OR NO CLOUDS BELOW 12,000 FEET WITH NO
SIGNIFICANT WEATHER AND/OR OBSTRUCTIONS TO VISIBILITY.

KSZ001>006-013>018-027>032-041>047-220400-
NORTHWEST KANSAS

CITY           SKY/WX    TMP DP  RH WIND       PRES   REMARKS
GOODLAND       CLEAR     73  37  27 S10       29.69R
HAYS           CLEAR     86  67  52 S26G32    29.72R
HILL CITY      CLEAR     86  61  42 S16G23    29.70R
RUSSELL        CLEAR     86  66  51 S22G36    29.73R
$$

KSZ061>065-074>080-084>089-220400-
SOUTHWEST KANSAS

CITY           SKY/WX    TMP DP  RH WIND       PRES   REMARKS
DODGE CITY     CLEAR     84  67  56 S31G41    29.77R
ELKHART          N/A     74  48  39 S13         N/A
GARDEN CITY    CLEAR     76  53  44 S14       29.75R
GREAT BEND     CLEAR     85  69  58 S22G30    29.77R
LIBERAL        CLEAR     80  57  45 S17       29.79R
$$

KSZ066>073-081>083-090>101-220400-
SOUTHEAST KANSAS

CITY           SKY/WX    TMP DP  RH WIND       PRES   REMARKS
CHANUTE        CLEAR     79  72  79 S10       29.90R
COFFEYVILLE    CLEAR     80  71  74 SE9       29.90R
HUTCHINSON     CLEAR     84  73  69 S22G30    29.81R
MEDICINE LODGE   N/A     84  68  58 S12G21    29.80R
NEWTON         CLEAR     82  71  69 S17G25    29.85R
WICHITA INTL   CLEAR     83  73  72 S20G26    29.83R
WICHITA JABRA  CLEAR     83  72  69 S18G26    29.84R
WINFIELD       CLEAR     83  71  67 S18G26    29.87R
$$

KSZ007>012-019>026-033>040-048>060-102>105-220400-
NORTHEAST KANSAS

CITY           SKY/WX    TMP DP  RH WIND       PRES   REMARKS
CONCORDIA      CLEAR     84  72  67 S23G32    29.75R
EMPORIA        CLEAR     81  70  69 S16G25    29.86R
LAWRENCE       PTCLDY    82  73  74 SE14G22   29.86R
MANHATTAN      CLEAR     84  72  67 S14G25    29.80R
OLATHE IND     CLEAR     80  72  76 S14       29.90R
OLATHE EXE     CLEAR     79  72  79 S12       29.90R
SALINA         CLEAR     88  71  57 S21G35    29.77R
TOPEKA BILLARD CLEAR     82  74  76 S17G25    29.84R
TOPEKA FORBES  CLEAR     83  74  74 SE16      29.86R
$$




USA.gov is the U.S. government's official web portal to all federal, state and local government web resources and services.